Waarnemingen

Advertentie
Mijn weer
Svanberga, Zweden (2490): temperatuur & dauwpunt: 19.02.2018 06:00:00 - 25.02.2018 06:00:00 (CET)Svanberga, Zweden (2490): windsnelheid & windstoten: 19.02.2018 06:00:00 - 25.02.2018 06:00:00 (CET)Svanberga, Zweden (2490): windrichting: 19.02.2018 06:00:00 - 25.02.2018 06:00:00 (CET)Svanberga, Zweden (2490): luchtdruk: 19.02.2018 06:00:00 - 25.02.2018 06:00:00 (CET)Svanberga, Zweden (2490): zicht: 19.02.2018 06:00:00 - 25.02.2018 06:00:00 (CET)Svanberga, Zweden (2490): neerslag: 19.02.2018 06:00:00 - 25.02.2018 06:00:00 (CET)
Datum & Tijd tt [°C] td [°C] ff [km/u] ff [kn] fx [km/u] fx [kn] dd ppp [hPa] vv [km] rr [mm]
25.02.2018 06:00:00 -16,6 -18,4 0 0 4 2 N 1040,2 0,9 0,0
25.02.2018 05:00:00 -15,4 -17,1 0 0 4 2 N 1039,8 1,0 0,1
25.02.2018 04:00:00 -16,1 -17,8 2 1 4 2 W 1039,8 1,3 0,0
25.02.2018 03:00:00 -17,1 -18,9 2 1 5 3 W 1039,8 3,0 0,0
25.02.2018 02:00:00 -17,7 -19,3 0 0 11 6 N 1039,9 18 0,0
25.02.2018 01:00:00 -12,1 -14,8 7 4 19 10 NO 1040,0 50 0,0
25.02.2018 00:00:00 -10,9 -13,2 10 5 15 8 NO 1039,8 21 0,0
24.02.2018 23:00:00 -9,3 -12,4 12 7 24 13 ONO 1039,6 16 0,0
24.02.2018 22:00:00 -9,7 -10,8 0 0 6 4 N 1039,2 6 0,1
24.02.2018 21:00:00 -11,0 -12,2 0 0 6 3 N 1039,2 14 0,0
24.02.2018 20:00:00 -13,1 -14,0 3 2 6 3 NW 1038,9 45 0,0
24.02.2018 19:00:00 -12,9 -13,9 2 1 4 2 WNW 1039,0 39 0,0
24.02.2018 18:00:00 -10,9 -12,2 3 1 6 4 NNW 1038,9 38 0,0
24.02.2018 17:00:00 -9,0 -11,1 3 2 9 5 NNW 1039,0 17 0,0
24.02.2018 16:00:00 - - - - - - - - - -
24.02.2018 15:00:00 -5,9 -9,6 5 3 15 8 NNO 1039,1 8 0,0
24.02.2018 14:00:00 -5,9 -9,3 9 5 18 10 NNO 1039,2 7 0,0
24.02.2018 13:00:00 -5,5 -9,4 6 3 16 8 NNO 1039,2 18 0,0
24.02.2018 12:00:00 -6,0 -8,4 5 3 15 8 NNO 1039,5 2,3 0,0
24.02.2018 11:00:00 -6,4 -7,3 0 0 4 2 N 1039,6 3,0 0,0
24.02.2018 10:00:00 -12,0 -13,6 0 0 3 1 N 1039,5 2,5 0,1
24.02.2018 09:00:00 -13,5 -15,2 0 0 3 1 N 1039,4 24 0,0
24.02.2018 08:00:00 -20,4 -22,5 0 0 1 1 N 1039,2 19 0,1
24.02.2018 07:00:00 -20,1 -22,0 0 0 4 2 N 1039,0 46 0,0
24.02.2018 06:00:00 -21,6 -23,7 0 0 1 1 N 1038,7 50 0,0
24.02.2018 05:00:00 -18,6 -20,4 0 0 2 1 N 1037,9 44 0,0
24.02.2018 04:00:00 -20,9 -22,9 0 0 3 1 N 1037,5 50 0,0
24.02.2018 03:00:00 -21,8 -23,9 0 0 3 1 N 1037,1 50 0,0
24.02.2018 02:00:00 -21,7 -23,8 0 0 1 1 N 1036,8 44 0,0
24.02.2018 01:00:00 -20,4 -22,4 0 0 3 1 N 1036,4 18 0,0
24.02.2018 00:00:00 -19,1 -20,8 0 0 3 2 N 1035,6 40 0,0
23.02.2018 23:00:00 -17,4 -19,0 0 0 5 3 N 1035,0 9 0,0
23.02.2018 22:00:00 -13,7 -15,1 0 0 4 2 N 1034,4 40 0,0
23.02.2018 21:00:00 -10,1 -11,1 2 1 6 3 W 1033,7 7 0,2
23.02.2018 20:00:00 -11,0 -11,9 3 2 6 4 NW 1033,2 2,2 0,1
23.02.2018 19:00:00 -12,8 -14,4 3 2 10 5 NO 1032,8 50 0,0
23.02.2018 18:00:00 -13,5 -14,8 0 0 8 4 N 1032,1 50 0,0
23.02.2018 17:00:00 -10,9 -13,8 2 1 18 10 NNO 1031,3 50 0,0
23.02.2018 16:00:00 -4,8 -9,4 11 6 19 10 ONO 1030,4 50 0,0
23.02.2018 15:00:00 -4,3 -7,1 14 8 22 12 O 1029,8 8 0,0
23.02.2018 14:00:00 -3,5 -5,7 13 7 20 11 ONO 1029,0 5 0,1
23.02.2018 13:00:00 -3,6 -5,8 11 6 18 10 ONO 1028,6 4,0 0,0
23.02.2018 12:00:00 -3,4 -5,3 6 3 11 6 NO 1028,1 4,6 0,0
23.02.2018 11:00:00 -3,8 -5,1 8 4 11 6 NO 1027,7 5 0,1
23.02.2018 10:00:00 -4,5 -5,3 0 0 4 2 N 1027,2 2,0 0,2
23.02.2018 09:00:00 -5,7 -6,2 0 0 4 2 N 1026,7 3,9 0,0
23.02.2018 08:00:00 -7,2 -7,9 0 0 3 1 N 1026,3 13 0,0
23.02.2018 07:00:00 -8,2 -9,0 0 0 2 1 N 1026,1 18 0,0
23.02.2018 06:00:00 -8,8 -9,7 0 0 2 1 N 1025,8 17 0,0
23.02.2018 05:00:00 -9,3 -10,2 0 0 2 1 N 1025,6 17 0,0
23.02.2018 04:00:00 -7,6 -8,4 0 0 3 1 N 1026,0 16 0,0
23.02.2018 03:00:00 -7,8 -8,6 0 0 3 2 N 1026,0 18 0,0
23.02.2018 02:00:00 -8,1 -8,9 0 0 3 2 N 1026,4 20 0,0
23.02.2018 01:00:00 -8,7 -9,6 0 0 5 3 N 1026,3 21 0,0
23.02.2018 00:00:00 -10,0 -11,1 0 0 6 4 N 1026,6 21 0,0
22.02.2018 23:00:00 -8,5 -9,4 2 1 4 2 WZW 1027,0 27 0,0
22.02.2018 22:00:00 -8,8 -9,7 0 0 2 1 N 1027,2 23 0,0
22.02.2018 21:00:00 -13,3 -14,5 0 0 2 1 N 1027,4 18 0,0
22.02.2018 20:00:00 -13,2 -14,5 0 0 2 1 N 1027,6 16 0,0
22.02.2018 19:00:00 -9,1 -10,2 0 0 5 3 N 1027,8 23 0,0
22.02.2018 18:00:00 -7,1 -8,6 0 0 3 1 N 1027,9 38 0,0
22.02.2018 17:00:00 -4,9 -6,9 0 0 4 2 N 1027,7 50 0,0
22.02.2018 16:00:00 -3,7 -6,3 0 0 4 2 N 1027,8 47 0,0
22.02.2018 15:00:00 -3,5 -6,0 0 0 3 2 N 1028,5 44 0,0
22.02.2018 14:00:00 -3,4 -6,0 2 1 5 3 WNW 1029,1 36 0,0
22.02.2018 13:00:00 -3,8 -6,1 3 1 5 3 N 1029,5 12 0,0
22.02.2018 12:00:00 -4,6 -6,3 0 0 4 2 N 1029,6 3,6 0,0
22.02.2018 11:00:00 -6,3 -7,4 0 0 3 2 N 1029,9 4,3 0,1
22.02.2018 10:00:00 -7,0 -7,8 0 0 2 1 N 1030,2 2,3 0,0
22.02.2018 09:00:00 -9,0 -10,1 0 0 4 2 N 1030,3 3,8 0,0
22.02.2018 08:00:00 -9,6 -10,7 0 0 3 1 N 1030,2 2,6 0,0
22.02.2018 07:00:00 -10,4 -11,6 0 0 3 1 N 1030,1 5 0,0
22.02.2018 06:00:00 -11,1 -12,3 0 0 1 1 N 1029,9 16 0,0
22.02.2018 05:00:00 -11,7 -13,0 0 0 4 2 N 1030,1 27 0,0
22.02.2018 04:00:00 -12,4 -13,7 2 1 6 4 WZW 1030,1 39 0,0
22.02.2018 03:00:00 -13,7 -15,3 0 0 1 1 N 1030,2 50 0,0
22.02.2018 02:00:00 -19,2 -21,1 0 0 2 1 N 1030,4 50 0,0
22.02.2018 01:00:00 -19,5 -21,5 0 0 2 1 N 1030,3 45 0,0
22.02.2018 00:00:00 -18,3 -20,1 0 0 2 1 N 1030,3 38 0,0
21.02.2018 23:00:00 -18,1 -19,9 0 0 4 2 N 1030,1 47 0,0
21.02.2018 22:00:00 -17,5 -19,1 0 0 1 1 N 1029,9 - 0,0
21.02.2018 21:00:00 -13,3 -14,6 0 0 3 2 N 1029,6 22 0,0
21.02.2018 20:00:00 -9,5 -10,6 0 0 6 3 N 1029,1 15 0,0
21.02.2018 19:00:00 -8,9 -9,8 0 0 2 1 N 1028,8 22 0,0
21.02.2018 18:00:00 -13,9 -15,0 0 0 3 2 N 1028,4 0,6 0,0
21.02.2018 17:00:00 -12,0 -13,4 3 1 7 4 OZO 1028,0 30 0,0
21.02.2018 16:00:00 -6,6 -10,6 5 3 9 5 O 1027,8 50 0,0
21.02.2018 15:00:00 -4,0 -10,4 0 0 5 3 N 1027,6 42 0,0
21.02.2018 14:00:00 -3,8 -8,8 0 0 5 3 N 1027,7 47 0,0
21.02.2018 13:00:00 -4,6 -7,8 3 1 5 3 O 1027,8 39 0,0
21.02.2018 12:00:00 -4,2 -7,5 2 1 6 3 N 1027,9 34 0,0
21.02.2018 11:00:00 -6,1 -6,9 0 0 1 1 N 1027,7 27 0,0
21.02.2018 10:00:00 -7,7 -8,5 0 0 2 1 N 1027,6 20 0,0
21.02.2018 09:00:00 -8,9 -9,8 0 0 3 2 N 1027,4 18 0,0
21.02.2018 08:00:00 -9,7 -10,8 0 0 2 1 N 1027,1 21 0,0
21.02.2018 07:00:00 -10,3 -11,3 0 0 1 1 N 1026,9 21 0,0
21.02.2018 06:00:00 -9,7 -10,8 0 0 1 1 N 1027,0 19 0,0
21.02.2018 05:00:00 -9,5 -10,4 0 0 4 2 N 1027,3 18 0,0
21.02.2018 04:00:00 -10,3 -11,3 0 0 1 1 N 1027,4 24 0,0
21.02.2018 03:00:00 -10,1 -11,1 0 0 2 1 N 1027,7 22 0,0
21.02.2018 02:00:00 -9,8 -10,9 2 1 4 2 W 1027,7 25 0,0
21.02.2018 01:00:00 -9,7 -10,8 0 0 2 1 N 1027,9 22 0,0
21.02.2018 00:00:00 -9,6 -10,7 0 0 4 2 N 1028,3 22 0,0
20.02.2018 23:00:00 -9,9 -11,0 0 0 2 1 N 1028,1 33 0,0
20.02.2018 22:00:00 -10,3 -11,3 0 0 2 1 N 1028,1 42 0,0
20.02.2018 21:00:00 -12,1 -13,4 0 0 3 2 N 1028,1 40 0,0
20.02.2018 20:00:00 -14,6 -16,0 2 1 3 2 ZW 1028,3 31 0,1
20.02.2018 19:00:00 -11,5 -12,7 0 0 3 2 N 1028,2 11 0,0
20.02.2018 18:00:00 -11,4 -12,7 0 0 4 2 N 1028,1 14 0,1
20.02.2018 17:00:00 -5,7 -7,2 0 0 6 3 N 1028,0 2,2 0,1
20.02.2018 16:00:00 -5,3 -8,9 3 1 6 4 WZW 1028,1 38 0,0
20.02.2018 15:00:00 -3,7 -8,2 2 1 9 5 WZW 1028,3 29 0,0
20.02.2018 14:00:00 -3,5 -8,4 4 2 9 5 WZW 1028,6 14 0,0
20.02.2018 13:00:00 -4,3 -8,9 6 3 10 5 WNW 1029,0 15 0,0
20.02.2018 12:00:00 -4,6 -10,2 3 2 8 4 N 1029,1 41 0,0
20.02.2018 11:00:00 -6,3 -10,3 0 0 3 2 N 1029,0 29 0,0
20.02.2018 10:00:00 -9,7 -13,0 0 0 5 3 N 1029,2 37 0,0
20.02.2018 09:00:00 -12,5 -13,9 0 0 3 1 N 1029,2 23 0,0
20.02.2018 08:00:00 -18,2 -20,0 0 0 2 1 N 1029,1 - 0,0
20.02.2018 07:00:00 -17,1 -18,7 0 0 1 1 N 1028,9 10 0,0
20.02.2018 06:00:00 -13,2 -14,2 0 0 6 3 N 1029,0 1,5 0,0
20.02.2018 05:00:00 -6,4 -8,1 5 3 11 6 NO 1028,7 10 0,0
20.02.2018 04:00:00 -5,5 -7,0 8 5 13 7 O 1028,7 3,9 0,1
20.02.2018 03:00:00 -5,1 -6,1 5 3 10 5 NO 1028,8 5 0,0
20.02.2018 02:00:00 -5,2 -6,3 0 0 4 2 N 1028,9 3,0 0,1
20.02.2018 01:00:00 -5,1 -6,2 3 2 6 4 WNW 1028,8 13 0,0
20.02.2018 00:00:00 -4,8 -6,3 2 1 11 6 NNO 1028,8 10 0,0
19.02.2018 23:00:00 -4,7 -6,5 3 1 10 5 N 1028,7 11 0,0
19.02.2018 22:00:00 -4,7 -6,2 3 2 9 5 NNW 1028,6 11 0,0
19.02.2018 21:00:00 -4,6 -6,3 3 2 6 4 N 1028,6 13 0,0
19.02.2018 20:00:00 -4,4 -7,2 5 3 18 10 NNO 1028,7 17 0,0
19.02.2018 19:00:00 -4,3 -6,8 9 5 17 9 NO 1028,4 17 0,0
19.02.2018 18:00:00 -4,6 -6,9 6 3 16 9 NO 1028,3 11 0,0
19.02.2018 17:00:00 -4,4 -6,8 10 5 23 13 NNO 1028,1 15 0,0
19.02.2018 16:00:00 -4,1 -5,9 5 3 12 6 NNO 1027,7 8 0,0
19.02.2018 15:00:00 -4,3 -6,6 8 4 18 10 ONO 1027,4 11 0,0
19.02.2018 14:00:00 -4,1 -6,7 11 6 20 11 NO 1027,2 14 0,0
19.02.2018 13:00:00 -4,0 -6,8 9 5 22 12 NO 1027,0 15 0,0
19.02.2018 12:00:00 -3,8 -6,7 13 7 22 12 NO 1026,9 13 0,0
19.02.2018 11:00:00 -3,8 -6,7 8 5 16 9 ONO 1026,5 17 0,0
19.02.2018 10:00:00 -4,1 -6,4 9 5 13 7 O 1026,0 13 0,0
19.02.2018 09:00:00 -4,4 -6,2 5 3 21 11 O 1025,8 13 0,0
19.02.2018 08:00:00 -4,2 -5,9 13 7 20 11 ONO 1025,3 12 0,0
19.02.2018 07:00:00 -3,9 -5,2 11 6 16 9 NO 1024,8 11 0,0
19.02.2018 06:00:00 -3,8 -4,9 10 5 17 9 ONO 1024,2 10 0,0

tt = temperatuur
td = dauwpunt
ff = windsnelheid
fx = windstoten
dd = windrichting
ppp = luchtdruk
vv = zicht
rr = neerslag

Weerstations in de omgeving